Regional Weather Roundup
Issued by NWS Charleston, SC

Current Version | Previous Version | Text Only | Print | Product List | Glossary Off
Versions: 1 2 3 4 5 6 7 8 9 10 11 12 13 14 15 16 17 18 19 20 21 22 23 24 25 26 27 28 29 30 31 32 33 34 35 36 37 38 39 40 41 42 43 44 45 46 47 48 49 50

000
ASUS42 KCHS 241910
RWRCHS

REGIONAL WEATHER ROUNDUP
NATIONAL WEATHER SERVICE CHARLESTON SC
300 PM EDT THU JUL 24 2014

NOTE: "FAIR" INDICATES FEW OR NO CLOUDS BELOW 12,000 FEET WITH NO
SIGNIFICANT WEATHER AND/OR OBSTRUCTIONS TO VISIBILITY.

NOT ALL STATIONS ARE QUALITY CONTROLLED BY THE NATIONAL
WEATHER SERVICE. USE DATA WITH CAUTION...ESPECIALLY
DEWPOINT OBSERVATIONS.

SCZ027-030-031-034>040-042>050-242000-
...SOUTH CAROLINA...

CITY           SKY/WX    TMP DP  RH WIND       PRES   REMARKS
N CHARLESTON   MOSUNNY   94  72  48 W12       29.91F HX 102
WATERFRONT PRK   N/A     88 N/A N/A S13         N/A
FORT JOHNSON   NOT AVBL
MOUNT PLEASANT FAIR      90  75  62 S12G20    29.91F HX 100
JOHNS ISLAND   CLEAR     90  70  51 S18       29.93F HX  95
PINOPOLIS        N/A     93  73  52 SW8G15    29.84F HX 102
MONCKS CORNER    N/A     93  77  59 SW13      29.91F HX 107
SUMMERVILLE    FAIR      93  73  52 SW9       29.92F HX 102
BEAUFORT MCAS  PTSUNNY   91  70  49 W13       29.93F HX  96
BEAUFORT ARPT  FAIR      91  73  55 W10G16    29.93S HX 100
HILTON HEAD IS MOSUNNY   90  75  62 S7        29.95F HX 100
GEORGETOWN     NOT AVBL
WALTERBORO       N/A     95  63  34 SW12G17   29.92F HX  96
ORANGEBURG     MOSUNNY   92  70  48 SW16      29.90F HX  97
BARNWELL       FAIR      93  70  46 SW10G17   29.92F HX  99
AIKEN          FAIR      91  70  49 SW15G22   29.95F HX  97
MANNING        FAIR      93  72  49 SW12G17   29.90S HX 100
KINGSTREE      NOT AVBL
COLUMBIA       MOSUNNY   95  68  41 W15G23    29.88F HX  99
SUMTER         SUNNY     93  71  49 SW13G23   29.87F HX 100
FLORENCE       PTSUNNY   91  72  53 W12       29.87F HX  98
MYRTLE BEACH   MOSUNNY   93  72  49 SW12G17   29.88F HX 100
N MYRTLE BEACH MOSUNNY   91  77  63 S14       29.88F HX 104

$$

GAZ063-065-086>088-099>101-113>116-118-119-134-136>141-150-242000-
...GEORGIA...

CITY           SKY/WX    TMP DP  RH WIND       PRES   REMARKS
SAVANNAH ARPT  MOSUNNY   92  70  48 SW13G24   29.94F HX  97
HUNTER AAF     MOSUNNY   92  72  52 SW9G18    29.93F HX  99
FORT STEWART   MOSUNNY   92  70  48 SW13      29.95F HX  97
STATESBORO     NOT AVBL
SYLVANIA       PTCLDY    91  75  60 W7        29.94F HX 101
CLAXTON        FAIR      93  72  49 W12G17    29.94F HX 100
THOMSON        PTSUNNY   90  77  65 SW7       29.97F HX 102
AUGUSTA-BUSH   MOSUNNY   92  68  45 W14       29.91F HX  96
AUGUSTA-DANIEL SUNNY     92  68  45 SW9G16    29.93F HX  96
SWAINSBORO     FAIR      95  72  46 W10G17    29.95F HX 103
VIDALIA          N/A     91  72  52 SW14      29.96F HX  98
ALMA           MOSUNNY   92  68  45 W13       29.97F HX  96
WAYCROSS       MOSUNNY   96  73  48 SW13      29.97F HX 105
JESUP          NOT AVBL
BRUNSWICK      MOSUNNY   95  66  38 CALM      29.98F HX  98
SAINT SIMONS   MOSUNNY   92  70  48 SW13      29.97F HX  97

$$

SCZ027-028-034-036>038-045-046-048>050-GAZ119-141-242000-
...LAKE AND SUPPLEMENTAL COASTAL OBSERVATIONS...

STATION/POSITION TIME  TEMP    WIND        PRES    WAVE   SWELL
                       AIR SEA DIR/SP/G            HT/PER HT/PER/DIR
                 (UTC) (F)     (DEG/KT/KT) (MB)    (FT/S) (FT/S/D)
UPR LAKE MARION  NOT AVBL
WINYAH BAY       1800   90     240/ 10     1013.0S
LAKE MURRAY      1800   89     220/ 12/ 15 1011.5F
ACE BASIN NERRS  1800   90     230/  3     1015.0S
FORT PULASKI     1900   90     240/  8/ 11 1014.3F
SAPELO ISLAND    1800   91     260/ 10     1016.0S

$$

ANZ835-935-AMZ111-154-330-350-352-354-374-450-454-472-242000-
...C-MAN AND BUOY OBSERVATIONS...

STATION/POSITION TIME  TEMP    WIND        PRES    WAVE   SWELL
                       AIR SEA DIR/SP/G            HT/PER HT/PER/DIR
                 (UTC) (F)     (DEG/KT/KT) (MB)    (FT/S) (FT/S/D)
FOLLY BEACH CMAN 1800   86     200/ 14/ 16 1014.3F
BUOY 41004       1900   83 83  220/ 14/ 16 1013.2F   3/ 5   2/ 8
BUOY 41008       1900   84 85  200/ 14/ 16 1014.8F   2/ 7   2/120/ 7
5E ST. MARYS GA  1900      87                N/A     2/ 7
FRYING PAN BUOY  NOT AVBL
BUOY 41025       1900          VRB 17/ 21  1012.0R   4/ 5   2/140/ 9
CAPE LOOKOUT NC  1800   84     220/ 15/ 21 1011.8F
BUOY 41002       1845   82 82  230/ 21/ 25 1016.0F   5/ 5
BUOY 41010       1900   83 84  220/ 10/ 12 1017.6F   3/ 4   2/130/ 7
BUOY 41012       NOT AVBL
ST AUGUSTINE FL  1900   85     150/ 10/ 13 1016.6F
CAPERS NEARSHORE 1800   85     210/ 16/ 17   N/A
FRIPP NEARSHORE  NOT AVBL


$$



USA.gov is the U.S. government's official web portal to all federal, state and local government web resources and services.